Weather History for Oakland, CA

Change the Weather History Date:

Sunday, December 7, 2014

  Actual Average Record
Temperature  
Mean Temperature 58 °F 50 °F  
Max Temperature 64 °F 58 °F 69 °F (1975)
Min Temperature 52 °F 42 °F 32 °F (1960)
Degree Days  
Heating Degree Days 7 15  
Month to date heating degree days 36 104  
Since 1 July heating degree days 373 779  
Cooling Degree Days 0 0  
Month to date cooling degree days 0 0  
Year to date cooling degree days 305 138  
Growing Degree Days 8 (Base 50)    
Moisture  
Dew Point 54 °F    
Average Humidity 86    
Maximum Humidity 100    
Minimum Humidity 72    
Precipitation  
Precipitation 0.01 in 0.11 in 0.78 in (2004)
Month to date precipitation 2.84 0.67  
Year to date precipitation 13.63 17.82  
Since 1 July precipitation 5.65 4.60  
Sea Level Pressure  
Sea Level Pressure 30.18 in    
Wind  
Wind Speed 3 mph (ESE)    
Max Wind Speed 12 mph    
Max Gust Speed 21 mph    
Visibility 8 miles    
Events Fog    
T = Trace of Precipitation, MM = Missing Value Source: NWS Daily Summary

Daily Weather History Graph

Daily Weather History Graph

Search for Another Location

Airport:

Trip Planner

Search our weather history database for the weather conditions in past years. The results will help you decide how hot, cold, wet, or windy it might be!

Date:

Astronomy

Dec. 07, 2014 Rise Set
Actual Time 7:10 AM PST 4:49 PM PST
Civil Twilight 6:41 AM PST 5:19 PM PST
Nautical Twilight 6:09 AM PST 5:51 PM PST
Astronomical Twilight 5:37 AM PST 6:23 PM PST
Moon 6:22 PM PST (12/7) 8:00 AM PST (12/7)
Length of Visible Light 10h 37m
Length of Day
9h 39m
Full, 98% of the Moon is Illuminated
Dec 7
Full
Dec 14
Last Quarter
Dec 21
New
Dec 28
First Quarter
Jan 4
Full

Hourly Weather History & Observations

Time (PST) Temp. Dew Point Humidity Pressure Visibility Wind Dir Wind Speed Gust Speed Precip Events Conditions
12:35 AM 57.2 °F 55.4 °F 94% 30.20 in 9.0 mi East 6.9 mph - N/A   Mostly Cloudy
12:53 AM 57.9 °F 55.9 °F 93% 30.20 in 9.0 mi East 5.8 mph - N/A   Mostly Cloudy
1:53 AM 57.9 °F 55.9 °F 93% 30.20 in 9.0 mi SE 6.9 mph - N/A   Overcast
2:53 AM 57.9 °F 55.0 °F 90% 30.20 in 8.0 mi SE 5.8 mph - N/A   Overcast
3:53 AM 55.9 °F 55.0 °F 97% 30.20 in 4.0 mi Calm Calm - N/A   Overcast
4:53 AM 54.0 °F 53.1 °F 97% 30.18 in 5.0 mi NE 5.8 mph - N/A   Mostly Cloudy
5:53 AM 57.0 °F 54.0 °F 89% 30.19 in 6.0 mi SSW 5.8 mph - N/A   Mostly Cloudy
6:53 AM 55.9 °F 54.0 °F 93% 30.18 in 6.0 mi East 3.5 mph - N/A   Mostly Cloudy
7:53 AM 54.0 °F 52.0 °F 93% 30.19 in 7.0 mi Calm Calm - N/A   Mostly Cloudy
8:53 AM 57.2 °F 55.4 °F 94% 30.21 in 7.0 mi Calm Calm - N/A   Mostly Cloudy
9:53 AM 61.0 °F 57.0 °F 87% 30.22 in 7.0 mi Calm Calm - N/A   Mostly Cloudy
10:53 AM 64.0 °F 55.0 °F 73% 30.20 in 10.0 mi Calm Calm - N/A   Overcast
11:53 AM 60.1 °F 55.9 °F 86% 30.18 in 7.0 mi WSW 6.9 mph - N/A   Overcast
12:53 PM 60.1 °F 55.0 °F 83% 30.16 in 7.0 mi Calm Calm - N/A   Overcast
1:53 PM 61.0 °F 55.9 °F 83% 30.18 in 9.0 mi West 10.4 mph - N/A   Overcast
2:53 PM 63.0 °F 55.9 °F 78% 30.17 in 10.0 mi North 4.6 mph - N/A   Mostly Cloudy
3:53 PM 62.1 °F 55.9 °F 80% 30.14 in 10.0 mi East 4.6 mph - N/A   Mostly Cloudy
4:53 PM 62.1 °F 54.0 °F 75% 30.14 in 10.0 mi ESE 3.5 mph - N/A   Mostly Cloudy
5:53 PM 60.1 °F 55.0 °F 83% 30.15 in 10.0 mi South 4.6 mph - N/A   Scattered Clouds
6:53 PM 57.0 °F 54.0 °F 89% 30.16 in 10.0 mi Calm Calm - N/A   Partly Cloudy
7:53 PM 55.0 °F 53.1 °F 93% 30.17 in 10.0 mi Calm Calm - N/A Fog Shallow Fog
8:53 PM 54.0 °F 52.0 °F 93% 30.17 in 10.0 mi ENE 4.6 mph - N/A Fog Shallow Fog
9:53 PM 54.0 °F 52.0 °F 93% 30.17 in 10.0 mi Calm Calm - N/A Fog Shallow Fog
10:53 PM 53.1 °F 52.0 °F 96% 30.17 in 10.0 mi Calm Calm - N/A Fog Shallow Fog
11:53 PM 54.0 °F 52.0 °F 93% 30.17 in 10.0 mi Calm Calm - N/A Fog Shallow Fog